Temperature
-0 -0 0 0 0 1 1 1 1 1 2 2 2 2 3 3 3 3 3 3 3 3 3 3 3 3 3 3 3 3 3 3 3 3 4 4 4 4 4 4 4 4 4
-1 -1 -1 -0 -0 0 0 0 1 1 1 1 2 2 2 2 2 2 2 3 3 3 3 3 3 3 3 3 3 3 3 3 3 3 3 3 3 3 3 3 3 3 3
-1 -1 -1 -1 -1 -1 -1 -0 0 0 1 1 1 1 1 2 2 2 2 2 2 2 2 2 2 2 2 2 2 2 2 2 2 2 2 2 3 3 3 3 3 3 3
-2 -2 -1 -1 -1 -1 -1 -1 -1 -0 0 0 0 1 1 1 1 1 1 1 1 1 1 1 2 1 2 2 2 2 2 2 2 1 2 2 2 2 2 2 2 2 2
-2 -2 -2 -2 -2 -2 -1 -1 -1 -1 -1 -0 -0 0 0 0 1 1 1 1 1 1 1 1 1 1 1 1 1 1 1 1 1 1 1 1 1 1 1 1 1 2 2
-3 -3 -2 -2 -2 -2 -2 -2 -2 -1 -1 -1 -1 -0 -0 -0 0 0 -0 0 0 0 0 0 1 1 1 0 1 0 0 0 0 0 1 1 1 1 1 1 1 1 1
-3 -3 -3 -3 -3 -3 -2 -2 -2 -2 -2 -1 -1 -1 -1 -0 -0 -0 -1 -1 -0 -0 -0 -0 -0 0 -0 -0 -0 -0 -0 -0 -0 -0 -0 0 0 0 0 0 -0 0 0
-3 -3 -3 -3 -3 -3 -3 -3 -3 -2 -2 -2 -2 -1 -1 -1 -1 -1 -1 -1 -1 -1 -1 -1 -1 -0 -0 -1 -1 -1 -1 -1 -1 -1 -1 -0 -0 -0 -0 -0 -0 -1 -0
-4 -4 -4 -4 -4 -3 -3 -3 -3 -3 -2 -2 -2 -2 -2 -2 -1 -1 -2 -2 -1 -1 -1 -1 -1 -1 -1 -1 -1 -1 -1 -1 -1 -1 -1 -1 -1 -1 -1 -1 -1 -1 -1
-5 -5 -4 -4 -4 -4 -4 -4 -3 -3 -3 -3 -2 -2 -2 -2 -2 -2 -2 -2 -2 -2 -2 -2 -2 -1 -1 -2 -2 -2 -2 -1 -2 -2 -2 -1 -1 -1 -2 -2 -2 -2 -2
-5 -5 -5 -5 -5 -4 -4 -4 -4 -4 -3 -3 -3 -3 -3 -3 -3 -3 -3 -3 -2 -2 -2 -2 -2 -2 -2 -2 -2 -2 -2 -2 -2 -2 -2 -2 -2 -2 -2 -2 -2 -2 -2
-6 -5 -5 -5 -5 -5 -5 -5 -5 -4 -4 -4 -4 -3 -3 -3 -3 -3 -3 -3 -3 -3 -3 -2 -2 -2 -2 -2 -2 -2 -2 -2 -2 -2 -3 -3 -3 -3 -3 -3 -3 -3 -3
-6 -6 -6 -6 -6 -6 -5 -5 -5 -5 -5 -5 -5 -4 -4 -4 -4 -3 -3 -3 -3 -3 -3 -3 -3 -3 -3 -3 -3 -3 -3 -3 -3 -3 -3 -3 -3 -3 -3 -3 -3 -3 -3
-6 -6 -6 -6 -6 -6 -6 -6 -6 -6 -6 -6 -5 -5 -5 -5 -4 -4 -4 -4 -4 -4 -4 -3 -3 -3 -3 -3 -3 -3 -3 -3 -4 -4 -4 -4 -4 -4 -4 -4 -4 -4 -4
-7 -7 -7 -7 -7 -7 -7 -7 -7 -6 -6 -6 -6 -6 -6 -5 -5 -5 -4 -4 -4 -4 -4 -4 -4 -4 -4 -4 -4 -4 -4 -4 -4 -4 -4 -4 -4 -4 -4 -4 -4 -4 -4
-7 -7 -8 -8 -8 -7 -7 -7 -7 -7 -7 -7 -7 -6 -6 -6 -6 -5 -5 -5 -5 -5 -5 -5 -5 -5 -5 -5 -5 -5 -5 -4 -4 -5 -5 -5 -5 -5 -5 -5 -5 -5 -5
-8 -8 -8 -8 -8 -8 -8 -7 -7 -7 -7 -7 -7 -7 -7 -6 -6 -6 -6 -5 -5 -5 -5 -5 -5 -5 -5 -5 -5 -5 -5 -5 -5 -5 -5 -5 -5 -5 -5 -5 -6 -6 -6
-9 -9 -8 -8 -8 -8 -8 -8 -8 -8 -8 -7 -7 -7 -7 -7 -6 -6 -6 -6 -6 -6 -6 -6 -6 -6 -6 -6 -6 -6 -6 -6 -6 -6 -6 -6 -6 -6 -6 -6 -6 -6 -6
-9 -9 -9 -9 -9 -9 -8 -8 -8 -8 -8 -8 -8 -7 -7 -7 -7 -7 -7 -7 -7 -7 -6 -6 -6 -6 -7 -7 -7 -7 -7 -7 -7 -7 -6 -6 -7 -6 -6 -6 -6 -6 -6
-9 -9 -9 -9 -9 -9 -9 -9 -9 -9 -9 -8 -8 -8 -8 -8 -8 -7 -7 -7 -7 -7 -7 -7 -7 -7 -7 -7 -7 -7 -7 -7 -7 -7 -7 -7 -7 -7 -7 -7 -7 -7 -7
-9 -10 -10 -10 -10 -10 -9 -9 -9 -9 -9 -9 -9 -9 -9 -9 -9 -8 -8 -8 -8 -8 -8 -8 -8 -8 -8 -8 -8 -8 -8 -8 -8 -8 -8 -8 -8 -7 -7 -7 -7 -7 -7
-10 -10 -10 -10 -10 -10 -10 -10 -10 -10 -10 -10 -9 -9 -9 -9 -9 -9 -9 -9 -9 -9 -9 -9 -9 -8 -8 -8 -8 -8 -8 -8 -8 -8 -8 -8 -8 -8 -8 -8 -8 -8 -8
-10 -10 -10 -10 -10 -10 -10 -10 -10 -10 -10 -10 -10 -10 -10 -10 -10 -10 -10 -10 -10 -9 -9 -9 -9 -9 -9 -9 -9 -9 -9 -9 -9 -9 -9 -8 -8 -8 -8 -8 -8 -8 -8
-10 -10 -10 -10 -10 -10 -11 -11 -11 -11 -11 -11 -11 -11 -11 -10 -10 -10 -10 -10 -10 -10 -10 -10 -10 -9 -9 -9 -9 -9 -9 -9 -9 -9 -9 -9 -9 -9 -9 -9 -9 -9 -9
-11 -11 -11 -11 -11 -11 -11 -11 -11 -11 -11 -11 -11 -11 -11 -11 -11 -11 -11 -11 -11 -10 -10 -10 -10 -10 -10 -10 -10 -10 -10 -10 -9 -10 -9 -9 -9 -9 -9 -9 -9 -9 -9
-11 -11 -11 -11 -11 -11 -11 -11 -11 -11 -11 -11 -11 -11 -11 -11 -11 -11 -11 -11 -11 -11 -10 -10 -10 -10 -10 -10 -10 -10 -10 -10 -10 -10 -10 -10 -10 -9 -9 -9 -9 -10 -10
Wind_Speed
2 2 1 1 0 1 1 1 2 2 2 2 2 2 3 3 2 4 4 4 4 3 3 3 3 2 2 2 1 1 1 1 3 3 2 2 1 2 2 4 5 4 5
2 2 2 1 0 1 2 2 2 2 2 2 2 2 3 3 3 4 5 4 5 5 4 4 4 3 3 2 2 2 2 2 2 4 3 2 2 2 2 2 2 4 4
2 2 1 2 1 1 2 2 2 2 2 2 2 2 2 3 3 4 5 5 5 5 5 5 5 5 4 3 3 3 2 2 2 3 3 2 2 2 2 2 2 2 3
2 2 1 2 2 2 2 2 2 2 2 2 3 3 2 3 3 3 4 4 5 4 5 5 5 6 6 5 4 4 3 2 2 2 3 2 2 2 2 2 3 2 2
2 2 2 2 2 2 2 2 2 2 3 3 3 2 2 2 3 3 4 4 5 4 4 5 5 6 7 6 5 4 4 3 3 3 3 3 3 2 3 3 3 3 3
2 3 3 2 2 2 2 2 2 2 2 2 2 2 2 3 3 4 4 4 4 5 5 4 4 5 6 7 6 6 5 5 5 4 4 5 5 4 3 3 3 2 3
3 3 3 2 2 2 2 2 2 2 2 2 2 2 3 3 3 4 4 3 4 4 5 5 4 4 5 4 5 5 5 7 7 6 5 6 6 5 4 4 4 4 4
3 3 3 3 3 2 2 2 3 2 2 2 3 3 3 3 3 4 4 3 3 4 5 5 6 5 5 5 4 4 4 4 5 5 5 6 5 5 6 6 5 4 3
3 4 3 3 3 2 3 3 3 2 2 2 3 3 2 3 4 4 4 3 3 4 4 4 5 5 7 7 5 5 4 4 5 6 6 6 6 6 5 3 3 3 4
4 4 3 3 2 3 3 3 2 2 2 2 2 2 2 3 5 5 4 3 3 3 3 4 6 6 7 7 5 5 6 5 3 2 2 3 3 4 4 4 4 4 3
4 4 3 3 3 3 2 2 1 1 1 1 2 2 2 3 4 5 5 3 4 3 4 4 4 6 7 7 6 6 7 5 4 3 3 2 2 1 2 2 3 4 4
4 4 4 4 3 3 1 1 1 1 1 1 2 2 2 3 4 4 5 6 5 4 4 4 4 6 6 6 5 6 7 5 3 3 3 3 3 2 2 1 2 2 2
3 3 3 4 3 3 2 1 1 0 1 2 2 2 2 3 3 5 6 6 5 3 3 5 5 6 5 4 4 4 3 3 3 3 3 3 2 2 1 1 0 1 0
3 3 3 3 3 2 2 2 1 1 2 2 2 2 3 3 3 3 3 3 4 3 3 4 4 4 3 2 3 2 2 3 3 3 3 2 1 1 1 1 1 1 1
3 3 3 3 2 2 2 2 2 2 3 3 3 3 3 3 4 6 4 3 2 2 1 1 0 1 1 1 1 1 2 2 2 2 2 2 2 2 2 1 1 1 1
3 3 2 2 2 2 2 3 4 4 5 6 6 5 4 5 6 6 6 4 3 1 0 0 1 1 2 2 2 2 1 2 2 2 2 2 3 3 2 2 1 2 2
2 3 3 2 2 2 2 2 3 4 4 5 5 5 5 5 5 5 4 3 2 0 1 1 1 2 2 2 2 2 2 2 2 2 2 2 2 2 2 2 2 2 2
3 3 3 2 2 2 2 2 2 2 3 3 4 5 5 4 4 4 3 1 1 0 0 1 1 2 2 2 2 2 1 1 1 1 2 2 3 3 2 3 3 3 3
3 2 2 2 2 2 2 2 2 2 2 2 3 4 5 4 4 4 3 1 0 1 1 1 1 1 2 2 1 1 1 1 1 1 2 2 3 3 3 3 3 4 4
2 4 3 2 2 2 2 2 2 1 1 2 2 2 2 2 2 2 2 1 1 1 1 2 2 1 1 1 1 1 1 1 2 2 2 2 3 3 4 4 4 4 3
2 3 4 3 2 2 2 2 2 2 2 2 2 2 3 1 1 2 2 2 2 2 2 2 2 2 2 1 1 1 2 2 2 2 2 2 2 3 3 3 3 4 3
2 2 2 2 2 2 2 2 2 2 2 2 2 3 4 2 1 2 2 2 2 2 2 2 2 2 2 2 2 2 2 2 3 3 3 3 3 3 3 3 3 3 3
2 2 2 2 2 3 3 2 2 2 2 2 2 2 2 2 2 2 3 3 3 3 3 2 3 3 3 3 3 3 3 4 4 4 3 3 3 3 3 4 4 4 4
2 2 2 2 2 2 2 2 2 2 2 2 2 2 2 2 2 3 3 3 3 3 3 3 3 4 5 4 4 5 5 6 6 6 6 5 4 4 4 4 4 5 5
2 2 2 2 2 2 2 2 2 2 2 2 2 2 2 2 3 3 3 3 4 4 4 4 4 4 6 6 6 6 7 8 8 6 6 5 5 5 5 5 4 4 5
2 2 2 2 2 2 2 3 3 3 3 3 3 2 2 2 3 3 3 3 4 4 4 4 5 6 7 7 8 9 9 9 9 8 6 5 5 5 5 4 5 5 5
Wind_Direction
315 304 325 310 302 271 260 253 253 254 252 229 241 224 209 202 212 195 195 190 188 197 203 200 209 210 209 216 223 222 234 229 249 272 279 284 267 257 255 239 235 234 246
293 297 303 316 347 295 278 271 265 252 255 248 248 244 225 210 216 201 199 201 197 201 205 205 214 210 204 214 219 228 236 236 235 255 275 281 277 262 251 241 238 242 247
287 290 306 308 294 269 275 268 263 258 255 249 239 239 229 219 221 211 202 206 208 210 209 211 215 207 214 217 218 224 235 250 243 240 260 277 282 282 275 283 284 277 262
297 288 282 274 265 261 257 266 261 252 253 247 246 237 234 232 233 222 211 210 212 216 218 217 215 212 216 214 218 220 222 231 236 231 245 257 269 266 247 263 279 278 286
308 296 275 273 269 260 261 259 259 253 260 256 259 250 256 240 233 222 220 219 216 219 223 222 219 222 227 224 225 218 214 226 231 241 245 254 259 250 241 247 259 271 279
300 293 291 288 280 264 257 254 258 263 256 255 252 243 254 258 258 258 247 225 221 219 224 228 226 221 227 230 234 230 226 224 225 237 247 242 246 248 251 248 249 261 268
302 298 304 300 278 267 266 268 265 267 271 270 257 241 254 261 260 259 260 239 221 222 224 227 237 232 228 218 228 233 239 240 233 228 238 245 240 237 235 245 245 242 251
303 301 305 303 288 268 254 256 262 263 260 261 269 259 256 266 268 261 267 241 222 225 226 224 226 225 224 217 214 226 234 240 236 230 231 241 245 236 230 235 241 253 269
318 307 299 291 284 269 254 249 252 251 260 259 264 255 250 272 275 273 272 236 236 237 235 226 222 224 230 224 216 218 231 249 249 238 238 241 246 243 232 233 232 244 264
312 307 305 294 282 275 267 261 258 251 257 277 289 280 264 269 271 270 270 242 244 249 248 237 234 232 232 226 215 213 224 238 234 240 257 263 252 241 240 230 227 237 254
309 313 319 314 293 275 262 268 259 256 274 278 288 294 285 283 283 271 267 256 244 246 252 249 238 234 235 234 232 225 231 231 221 226 238 247 250 241 236 234 230 228 230
317 322 323 318 309 308 281 279 269 225 238 274 289 301 296 295 293 283 279 275 271 251 250 249 244 238 239 237 236 235 231 228 214 218 228 235 239 238 239 226 226 227 223
324 323 320 318 316 316 308 283 275 261 243 271 272 282 298 305 297 291 286 286 282 271 258 260 259 246 240 233 238 231 219 208 207 218 227 235 238 225 202 191 132 131 57
315 315 314 312 312 317 310 297 281 255 251 262 270 277 287 298 295 287 277 273 284 281 268 257 252 243 238 234 222 212 205 204 206 211 215 225 225 211 206 207 227 232 268
308 306 307 305 301 311 305 286 274 261 253 253 254 255 264 275 284 295 291 281 275 268 281 293 242 219 222 223 224 229 219 207 215 207 202 210 225 226 230 216 218 221 236
303 303 300 298 298 300 301 316 312 296 300 291 284 281 286 289 301 301 302 300 298 269 338 198 233 237 234 231 230 240 233 222 221 215 211 214 222 227 231 234 224 220 237
288 291 290 292 289 292 292 292 309 325 322 317 310 304 305 306 309 310 308 313 307 203 167 201 240 251 253 245 236 236 247 243 226 217 217 220 222 223 224 225 224 230 242
294 293 296 285 286 285 281 283 287 297 312 319 322 322 324 324 330 333 331 352 341 334 211 225 246 264 259 254 252 250 251 250 239 235 228 228 224 220 223 226 224 227 239
301 296 291 293 290 289 290 291 288 283 285 303 322 324 326 334 343 353 6 26 261 271 277 264 259 267 272 264 258 252 247 248 259 250 245 242 233 218 222 225 228 235 242
301 310 313 302 301 305 304 297 293 293 299 308 309 309 324 348 350 341 345 339 312 289 280 273 274 270 275 276 265 251 252 256 257 255 253 254 244 228 225 224 225 229 237
296 303 312 311 300 291 291 288 285 287 291 294 301 314 321 328 309 307 307 307 295 285 279 273 275 278 274 272 270 257 248 254 257 254 253 251 249 241 236 232 227 227 235
278 284 291 292 291 285 284 284 284 284 282 284 300 308 317 321 305 301 298 297 293 284 272 264 266 264 259 256 258 262 257 253 256 253 252 252 253 250 244 238 233 232 234
273 280 284 291 293 298 305 304 293 285 281 278 283 293 298 293 289 290 291 293 294 286 283 266 255 263 273 262 255 246 247 251 249 247 248 250 251 251 243 237 235 238 240
270 275 282 289 294 293 290 289 290 292 290 287 285 284 284 286 287 287 290 293 290 288 281 270 261 260 268 271 267 262 256 255 251 240 235 239 243 247 244 240 238 238 241
273 273 277 280 285 286 285 284 284 285 286 288 288 289 291 291 292 292 292 295 290 287 287 281 271 266 269 271 271 270 271 269 263 252 234 231 238 239 239 239 238 238 238
282 279 278 276 275 275 274 276 279 282 283 286 286 284 286 289 293 295 297 300 296 290 290 286 277 276 277 275 274 275 278 276 270 264 245 232 236 240 238 237 233 236 236
Height
1487 1487 1486 1485 1486 1487 1487 1488 1489 1491 1492 1493 1495 1496 1499 1500 1502 1504 1506 1508 1509 1511 1513 1514 1515 1517 1518 1519 1520 1521 1522 1522 1521 1521 1522 1523 1523 1524 1524 1525 1525 1525 1525
1485 1484 1483 1483 1483 1484 1484 1485 1486 1487 1488 1489 1491 1492 1494 1496 1498 1499 1501 1503 1505 1506 1508 1510 1511 1513 1514 1515 1516 1517 1518 1518 1518 1517 1517 1518 1519 1520 1520 1520 1520 1520 1520
1482 1481 1481 1480 1480 1481 1481 1482 1483 1484 1485 1486 1487 1488 1490 1492 1493 1495 1497 1498 1500 1502 1503 1505 1506 1508 1509 1510 1511 1512 1513 1514 1514 1514 1513 1514 1514 1515 1516 1516 1516 1516 1516
1479 1478 1478 1478 1478 1478 1479 1479 1480 1481 1481 1482 1483 1484 1486 1488 1489 1491 1492 1494 1496 1497 1499 1501 1502 1503 1504 1505 1506 1507 1508 1509 1510 1510 1509 1509 1510 1511 1511 1511 1510 1510 1510
1477 1476 1476 1476 1476 1476 1476 1477 1477 1478 1479 1479 1480 1481 1482 1484 1485 1487 1488 1490 1491 1492 1494 1496 1497 1498 1500 1501 1502 1503 1504 1505 1505 1505 1505 1505 1505 1505 1506 1506 1506 1505 1505
1474 1473 1473 1473 1473 1473 1473 1474 1474 1475 1475 1476 1476 1477 1479 1480 1481 1483 1484 1485 1486 1488 1489 1491 1492 1493 1495 1496 1497 1498 1500 1500 1501 1501 1501 1500 1500 1501 1501 1501 1501 1500 1500
1472 1471 1470 1470 1470 1470 1470 1471 1471 1471 1472 1473 1473 1475 1475 1476 1477 1479 1480 1481 1482 1483 1484 1485 1486 1488 1489 1491 1492 1493 1494 1496 1497 1497 1496 1496 1496 1496 1497 1496 1496 1496 1495
1469 1468 1467 1466 1466 1467 1467 1467 1468 1468 1469 1469 1470 1471 1472 1473 1474 1475 1476 1477 1478 1478 1479 1480 1482 1482 1484 1485 1486 1487 1489 1490 1491 1492 1492 1492 1492 1492 1492 1492 1491 1491 1491
1466 1465 1464 1463 1463 1463 1464 1465 1465 1466 1466 1467 1468 1468 1469 1469 1470 1471 1472 1473 1473 1474 1475 1476 1477 1478 1479 1481 1482 1483 1483 1484 1486 1486 1486 1487 1487 1487 1487 1487 1486 1486 1485
1463 1462 1462 1461 1460 1460 1460 1461 1462 1462 1463 1464 1464 1465 1465 1466 1467 1468 1468 1469 1469 1470 1471 1471 1473 1473 1475 1476 1477 1478 1478 1479 1480 1480 1481 1481 1481 1482 1482 1482 1482 1482 1481
1461 1460 1459 1458 1458 1458 1458 1458 1459 1459 1459 1460 1460 1461 1462 1462 1463 1464 1465 1466 1466 1466 1467 1467 1468 1469 1470 1471 1472 1473 1474 1475 1475 1475 1475 1475 1476 1476 1476 1476 1476 1476 1476
1459 1458 1457 1456 1456 1455 1455 1455 1455 1456 1456 1457 1457 1457 1459 1459 1460 1461 1462 1463 1463 1463 1463 1463 1463 1464 1465 1466 1467 1468 1469 1470 1470 1470 1470 1470 1470 1470 1470 1471 1471 1471 1471
1457 1455 1455 1454 1453 1452 1452 1452 1452 1452 1453 1453 1454 1454 1455 1456 1457 1457 1458 1459 1459 1459 1459 1459 1460 1460 1461 1461 1462 1463 1463 1464 1464 1464 1464 1465 1465 1465 1465 1466 1466 1466 1466
1454 1453 1452 1451 1450 1450 1450 1449 1449 1450 1450 1451 1451 1451 1452 1453 1453 1454 1454 1454 1455 1455 1455 1455 1456 1456 1456 1457 1457 1458 1458 1459 1459 1460 1460 1460 1460 1461 1461 1461 1461 1461 1461
1452 1451 1450 1449 1448 1447 1447 1447 1447 1447 1448 1448 1449 1449 1449 1449 1450 1451 1451 1451 1451 1451 1451 1451 1451 1452 1452 1452 1453 1453 1454 1454 1455 1455 1455 1455 1456 1456 1456 1457 1457 1457 1457
1450 1449 1448 1447 1446 1445 1445 1445 1445 1445 1446 1446 1446 1447 1447 1447 1448 1448 1448 1448 1448 1448 1448 1447 1447 1448 1448 1448 1448 1449 1449 1450 1450 1451 1451 1451 1452 1452 1452 1452 1452 1453 1452
1448 1447 1446 1445 1444 1443 1443 1442 1442 1443 1443 1443 1443 1444 1444 1444 1444 1444 1444 1444 1444 1444 1444 1444 1444 1444 1444 1445 1445 1445 1445 1445 1446 1446 1447 1447 1447 1448 1448 1448 1448 1448 1448
1447 1446 1444 1443 1443 1442 1442 1441 1441 1440 1440 1440 1441 1441 1440 1441 1441 1441 1441 1440 1440 1440 1440 1440 1441 1441 1441 1441 1441 1441 1441 1441 1442 1442 1442 1443 1443 1443 1443 1444 1444 1444 1444
1445 1444 1443 1442 1441 1441 1440 1439 1439 1438 1438 1437 1437 1438 1438 1438 1438 1438 1437 1437 1436 1436 1437 1437 1437 1437 1437 1437 1437 1437 1437 1437 1437 1438 1438 1438 1439 1439 1439 1439 1440 1440 1440
1444 1443 1442 1441 1440 1439 1438 1437 1437 1436 1436 1435 1435 1435 1435 1434 1434 1434 1434 1434 1433 1433 1433 1433 1433 1434 1434 1434 1433 1433 1433 1434 1434 1434 1434 1434 1434 1435 1435 1435 1435 1435 1435
1442 1441 1440 1439 1438 1437 1436 1436 1435 1435 1434 1433 1433 1433 1433 1432 1431 1431 1431 1430 1430 1430 1430 1430 1430 1430 1430 1430 1430 1430 1430 1430 1430 1430 1430 1430 1430 1430 1431 1431 1431 1431 1431
1440 1439 1438 1437 1436 1435 1434 1434 1433 1432 1432 1431 1431 1430 1430 1430 1429 1428 1428 1428 1427 1428 1427 1427 1427 1426 1426 1427 1426 1426 1426 1426 1426 1426 1426 1426 1426 1426 1426 1426 1426 1427 1427
1438 1437 1436 1435 1434 1433 1432 1431 1431 1430 1429 1429 1428 1428 1427 1427 1426 1426 1425 1425 1425 1425 1424 1424 1423 1423 1423 1423 1423 1423 1422 1422 1422 1422 1421 1421 1421 1421 1422 1422 1422 1422 1422
1436 1435 1433 1433 1432 1431 1430 1429 1428 1428 1427 1426 1426 1425 1425 1424 1424 1423 1423 1422 1422 1421 1421 1420 1420 1420 1419 1419 1419 1419 1418 1418 1418 1418 1417 1417 1417 1417 1417 1417 1417 1417 1418
1433 1432 1431 1430 1429 1428 1427 1427 1426 1425 1424 1424 1423 1423 1422 1422 1421 1420 1420 1419 1419 1418 1417 1417 1416 1416 1416 1415 1415 1414 1414 1414 1413 1413 1413 1412 1412 1412 1412 1412 1412 1412 1413
1430 1429 1429 1428 1427 1426 1425 1424 1423 1422 1422 1421 1420 1420 1419 1419 1418 1418 1417 1416 1415 1415 1414 1413 1413 1412 1412 1411 1411 1410 1410 1409 1409 1409 1408 1408 1407 1407 1407 1407 1407 1407 1407